Location: Buckeye Ditch
(40.9104°N, 122.9517°W)
Time: 19:35:25
(UTC+00:00)

BlueWalker 3 - Pass Details

Date: 28 June 2024
Orbit: 480 x 491 km, 53.2° (Epoch: 24 July)

Event Time Altitude Azimuth Distance (km) Brightness Sun altitude
Rises 06:41:34 0° 314° (NW) 2,541 6.7 -22.3°
Reaches altitude 10° 06:44:14 10° 333° (NNW) 1,659 5.7 -22.4°
Maximum altitude 06:46:57 19° 19° (NNE) 1,211 4.4 -22.6°
Enters shadow 06:49:31 11° 65° (ENE) 1,619 4.5 -22.8°
